Regional Weather Roundup
Issued by NWS

Home | Current Version | Previous Version | Graphics & Text | Print | Product List | Glossary On
Versions: 1 2 3 4 5 6 7 8 9 10 11 12 13 14 15 16 17 18 19 20 21 22 23 24 25 26 27
000
ASUS45 KTFX 270610
RWRMT
MONTANA REGIONAL WEATHER ROUNDUP
NATIONAL WEATHER SERVICE GREAT FALLS MT
1200 AM MDT SAT MAY 27 2017

NOTE: "FAIR" INDICATES FEW OR NO CLOUDS BELOW 12000 FEET WITH NO
SIGNIFICANT WEATHER AND/OR OBSTRUCTIONS TO VISIBILITY.

MTZ001>007-043-270700-
WEST OF THE DIVIDE

CITY           SKY/WX    TMP DP  RH WIND       PRES   REMARKS
KALISPELL      MOCLDY    46  41  82 NE3       29.99R
MISSOULA       CLOUDY    53  42  66 CALM      30.03R
BUTTE          CLOUDY    43  34  70 SE8       30.09R
MULLAN PASS    CLEAR     47  31  53 NW7       30.11R
ANACONDA         N/A     46  34  61 S5        30.07R
DEER LODGE       N/A     46  37  71 CALM      30.09R
EUREKA           N/A     50  39  66 CALM      29.98R
HAMILTON         N/A     52  39  62 CALM      30.06R
RONAN            N/A     56  43  61 CALM      30.05R
$$

MTZ008-052>055-270700-
SOUTHWEST MONTANA

CITY           SKY/WX    TMP DP  RH WIND       PRES   REMARKS
BOZEMAN        MOCLDY    46  39  76 SE9       30.07R
DILLON         CLOUDY    46  34  62 CALM      30.08R
ENNIS          CLOUDY    46  37  71 N10       30.14R
THREE FORKS      N/A     49  41  74 S6        30.05R
$$

MTZ009-010-012-014-046-048-049-054-270700-
EAST SLOPES AND CENTRAL MONTANA

CITY           SKY/WX    TMP DP  RH WIND       PRES   REMARKS
CUT BANK       CLOUDY    52  36  54 W10       29.97S
GREAT FALLS    PTCLDY    48  39  71 SW12      30.00R
MALMSTROM AFB  CLOUDY    49  39  70 SW12      29.99S
HELENA         CLOUDY    50  41  71 W5        30.04R
CHOTEAU          N/A     50  39  66 W6        30.02R
CONRAD           N/A     45  44  96 W8        30.00S
$$

MTZ011-013-016-021-045-047-050-051-270700-
NORTH CENTRAL MONTANA

CITY           SKY/WX    TMP DP  RH WIND       PRES   REMARKS
HAVRE          CLOUDY    44  37  76 SW6       29.91S
LEWISTOWN      PTCLDY    41  35  79 SE5       30.01R
N BAR RANCH      N/A     43  32  65 W6        30.04R
CHINOOK          N/A     50  37  62 W3        29.91R
FORT BENTON      N/A     54  37  54 CALM      29.97S
$$

MTZ017>020-022>027-061-062-270700-
NORTHEAST MONTANA

CITY           SKY/WX    TMP DP  RH WIND       PRES   REMARKS
GLASGOW        CLEAR     48  39  71 W6        29.89F
JORDAN           N/A     43  34  70 W9        29.93S
SIDNEY         PTCLDY    48  37  65 NW8       29.87S
WOLF POINT     CLEAR     46  37  71 W8        29.89S
MALTA          CLEAR     41  37  87 W6        29.91S
PLENTYWOOD       N/A     50  37  62 W7        29.84S
POPLAR           N/A     46  36  66 SW3       29.88S
SCOBEY           N/A     48  33  56 SW3       29.85S
$$

MTZ028>42-056>058-270700-
SOUTHCENTRAL AND SOUTHEAST MONTANA

CITY           SKY/WX    TMP DP  RH WIND       PRES   REMARKS
BAKER          PTCLDY    50  36  58 W5        29.94R
BILLINGS       CLOUDY    52  38  58 N3        30.01R
LIVINGSTON     CLOUDY    44  36  73 CALM      30.05R
MILES CITY     CLEAR     47  31  53 NW7       29.94R
BIG TIMBER     MOCLDY    43  37  81 W10       30.06S
EKALAKA          N/A     52  32  46 SW3       29.95R
FORSYTH          N/A     55  36  47 CALM      29.96R
LAUREL           N/A     46  35  65 SW1       30.00F
ROUNDUP          N/A     47  36  65 S6        29.92S
$$

REGIONAL REPORTS...DAKOTAS

CITY           SKY/WX    TMP DP  RH WIND       PRES   REMARKS
WILLISTON      CLEAR     52  39  61 W13       29.84F
MINOT          CLOUDY    52  38  58 SW8       29.79S
DICKINSON      MOCLDY    46  33  60 W8        29.87S
BEACH            N/A     46  36  66 W6        29.94S
CROSBY         MOCLDY    52  37  58 NW15      29.81S
TIOGA            N/A     48  39  71 W10       29.84S
WATFORD CITY     N/A     46  39  76 SW7       29.85S
BISMARCK       CLOUDY    53  38  56 SW5       29.86S
GRAND FORKS    CLEAR     53  44  71 SW10      29.77S
FARGO          CLOUDY    53  43  68 S8        29.82R
BUFFALO SD       N/A     50  40  68 W6        29.88F
RAPID CITY     LGT RAIN  51  48  89 NW6       30.00S
$$

REGIONAL REPORTS...WYOMING/IDAHO/WASHINGTON

CITY           SKY/WX    TMP DP  RH WIND       PRES   REMARKS
GILLETTE       CLOUDY    47  45  93 W7        30.02S
SHERIDAN       CLOUDY    45  41  86 SW3       30.02R
BUFFALO WY     CLOUDY    45  40  82 SW3       30.04F
CODY           CLEAR     37  35  92 S6        30.07S
YELLOWSTONE LA   N/A     30  30 100 CALM      30.15R
IDAHO FALLS    MOCLDY    42  41  96 CALM      30.13R
SALMON         PTCLDY    52  39  62 CALM      30.05R
BOISE          CLEAR     57  41  55 E10       30.06R
SPOKANE        CLEAR     63  39  41 SW12      30.00R
$$

REGIONAL REPORTS...ALBERTA

CITY           SKY/WX    TMP DP  RH WIND       PRES   REMARKS
EDMONTON       CLEAR     52  39  62 NW3       29.82S
CALGARY        MOCLDY    57  36  44 VRB2      29.91S
LETHBRIDGE     CLOUDY    54  41  62 SW10      29.91S
MEDICINE HAT   PTCLDY    52  41  66 SW12      29.85S
WATERTON GATE    N/A     46  34  61 S9          N/A
CARDSTON         N/A     50  36  57 SW8         N/A
MILK RIVER       N/A     45  41  87 NW6         N/A
ONEFOUR          N/A     50  36  57 W2          N/A
$$

REGIONAL REPORTS...SASKATCHEWAN

CITY           SKY/WX    TMP DP  RH WIND       PRES   REMARKS
SWIFT CURRENT  CLOUDY    50  45  81 SW15      29.81F
REGINA         PTCLDY    48  41  76 W12       29.77S
SASKATOON      CLEAR     46  37  71 N3        29.76S
CYPRESS HILLS    N/A     48  34  57 W5          N/A
VAL MARIE        N/A     52  39  62 N9G17       N/A
ROCKGLEN         N/A     45  39  81 W13         N/A
ASSINIBOIA       N/A     50  41  71 NW6         N/A
$$




USA.gov is the U.S. government's official web portal to all federal, state and local government web resources and services.